Weather History for Waupaca, WI

Change the Weather History Date:

Sunday, June 30, 2013

  Actual Average Record
Temperature  
Mean Temperature 68 °F -  
Max Temperature 81 °F 80 °F 98 °F (1963)
Min Temperature 56 °F 57 °F 46 °F (2007)
Cooling Degree Days 4    
Growing Degree Days 18 (Base 50)    
Moisture  
Dew Point 47 °F    
Average Humidity 51    
Maximum Humidity 90    
Minimum Humidity 20    
Precipitation  
Precipitation 0.00 in - - ()
Sea Level Pressure  
Sea Level Pressure 30.00 in    
Wind  
Wind Speed 6 mph (NNE)    
Max Wind Speed 12 mph    
Max Gust Speed 18 mph    
Visibility 10 miles    
Events      
Averages and records for this station are not official NWS values.
T = Trace of Precipitation, MM = Missing Value Source: NWS Daily Summary

Daily Weather History Graph

Daily Weather History Graph

Search for Another Location

Airport:

Trip Planner

Search our weather history database for the weather conditions in past years. The results will help you decide how hot, cold, wet, or windy it might be!

Date:

Astronomy

Jun. 30, 2013 Rise Set
Actual Time 5:15 AM CDT 8:44 PM CDT
Civil Twilight 4:38 AM CDT 9:20 PM CDT
Nautical Twilight 3:50 AM CDT 10:08 PM CDT
Astronomical Twilight 2:49 AM CDT 11:09 PM CDT
Moon 12:25 AM CDT (6/30) 1:48 PM CDT (6/30)
Length of Visible Light 16h 41m
Length of Day
15h 28m
Last Quarter, 45% of the Moon is Illuminated
Jun 30
Last Quarter
Jul 8
New
Jul 15
First Quarter
Jul 22
Full
Jul 29
Last Quarter

Hourly Weather History & Observations

Time (CDT) Temp. Dew Point Humidity Pressure Visibility Wind Dir Wind Speed Gust Speed Precip Events Conditions
12:15 AM 62.2 °F 50.2 °F 65% 29.90 in 10.0 mi North 3.5 mph - N/A   Clear
12:35 AM 60.8 °F 50.2 °F 68% 29.90 in 10.0 mi North 4.6 mph - N/A   Clear
12:55 AM 60.4 °F 49.5 °F 67% 29.91 in 10.0 mi North 4.6 mph - N/A   Clear
1:15 AM 59.2 °F 49.3 °F 70% 29.91 in 10.0 mi North 4.6 mph - N/A   Clear
1:35 AM 59.0 °F 48.6 °F 68% 29.91 in 10.0 mi North 4.6 mph - N/A   Clear
1:55 AM 59.5 °F 47.5 °F 64% 29.91 in 10.0 mi North 5.8 mph - N/A   Clear
2:15 AM 59.0 °F 47.3 °F 65% 29.91 in 10.0 mi North 4.6 mph - N/A   Clear
2:35 AM 58.1 °F 47.1 °F 67% 29.91 in 10.0 mi NNW 5.8 mph - N/A   Clear
2:55 AM 57.7 °F 46.8 °F 67% 29.91 in 10.0 mi North 6.9 mph - N/A   Clear
3:15 AM 57.6 °F 46.4 °F 66% 29.92 in 10.0 mi NNW 6.9 mph - N/A   Clear
3:35 AM 57.4 °F 46.0 °F 66% 29.92 in 10.0 mi North 8.1 mph - N/A   Clear
3:55 AM 57.2 °F 45.9 °F 66% 29.92 in 10.0 mi North 6.9 mph - N/A   Clear
4:15 AM 56.8 °F 45.7 °F 66% 29.92 in 10.0 mi North 5.8 mph - N/A   Clear
4:35 AM 56.8 °F 46.4 °F 68% 29.93 in 10.0 mi NNW 5.8 mph - N/A   Clear
4:55 AM 56.3 °F 46.4 °F 69% 29.93 in 10.0 mi NNW 6.9 mph - N/A   Clear
5:15 AM 56.5 °F 46.0 °F 68% 29.94 in 10.0 mi North 8.1 mph - N/A   Clear
5:35 AM 56.8 °F 45.9 °F 67% 29.95 in 10.0 mi North 5.8 mph - N/A   Clear
5:55 AM 57.2 °F 46.0 °F 66% 29.96 in 10.0 mi North 6.9 mph - N/A   Clear
6:15 AM 57.6 °F 46.2 °F 66% 29.96 in 10.0 mi North 6.9 mph - N/A   Clear
6:35 AM 57.9 °F 46.4 °F 65% 29.97 in 10.0 mi North 6.9 mph - N/A   Clear
6:55 AM 58.8 °F 46.8 °F 64% 29.97 in 10.0 mi North 6.9 mph - N/A   Clear
7:15 AM 59.9 °F 47.3 °F 63% 29.97 in 10.0 mi North 6.9 mph - N/A   Clear
7:35 AM 61.7 °F 47.7 °F 60% 29.98 in 10.0 mi North 6.9 mph - N/A   Clear
7:55 AM 63.9 °F 47.8 °F 56% 29.98 in 10.0 mi North 6.9 mph - N/A   Clear
8:15 AM 64.6 °F 48.4 °F 56% 29.99 in 10.0 mi North 8.1 mph - N/A   Clear
8:35 AM 65.8 °F 48.6 °F 54% 30.00 in 10.0 mi North 5.8 mph - N/A   Clear
8:55 AM 67.5 °F 48.6 °F 51% 30.00 in 10.0 mi North 6.9 mph - N/A   Clear
9:15 AM 69.3 °F 49.3 °F 49% 30.00 in 10.0 mi North 6.9 mph - N/A   Clear
9:35 AM 71.1 °F 48.9 °F 45% 30.00 in 10.0 mi North 6.9 mph - N/A   Clear
9:55 AM 71.1 °F 48.4 °F 44% 30.00 in 10.0 mi North 6.9 mph - N/A   Clear
10:15 AM 72.3 °F 48.6 °F 43% 30.00 in 10.0 mi North 5.8 mph - N/A   Clear
10:35 AM 73.6 °F 50.2 °F 44% 30.01 in 10.0 mi NNE 6.9 mph - N/A   Clear
10:55 AM 74.5 °F 49.5 °F 41% 30.01 in 10.0 mi North 6.9 mph - N/A   Clear
11:15 AM 75.4 °F 49.1 °F 39% 30.01 in 10.0 mi NNE 8.1 mph - N/A   Clear
11:35 AM 75.6 °F 48.7 °F 39% 30.01 in 10.0 mi North 11.5 mph - N/A   Clear
11:55 AM 76.1 °F 48.4 °F 38% 30.01 in 10.0 mi North 8.1 mph - N/A   Clear
12:15 PM 77.0 °F 47.7 °F 35% 30.01 in 10.0 mi NNE 6.9 mph - N/A   Clear
12:35 PM 78.1 °F 45.7 °F 32% 30.02 in 10.0 mi NE 10.4 mph - N/A   Clear
12:55 PM 78.1 °F 42.1 °F 28% 30.02 in 10.0 mi NNE 11.5 mph 16.1 mph N/A   Clear
1:15 PM 78.4 °F 38.7 °F 24% 30.02 in 10.0 mi NE 5.8 mph - N/A   Clear
1:35 PM 79.2 °F 37.9 °F 23% 30.02 in 10.0 mi NE 9.2 mph - N/A   Clear
1:55 PM 79.3 °F 37.4 °F 22% 30.02 in 10.0 mi NNE 10.4 mph 16.1 mph N/A   Clear
2:15 PM 79.7 °F 36.5 °F 21% 30.02 in 10.0 mi NE 10.4 mph - N/A   Clear
2:35 PM 80.1 °F 35.8 °F 20% 30.02 in 10.0 mi NNE 11.5 mph 16.1 mph N/A   Clear
2:55 PM 80.4 °F 37.4 °F 21% 30.02 in 10.0 mi NE 11.5 mph 17.3 mph N/A   Clear
3:15 PM 81.1 °F 38.5 °F 22% 30.02 in 10.0 mi NNE 9.2 mph 18.4 mph N/A   Clear
3:35 PM 80.4 °F 38.1 °F 22% 30.02 in 10.0 mi NE 8.1 mph - N/A   Clear
3:55 PM 80.4 °F 38.1 °F 22% 30.02 in 10.0 mi North 9.2 mph - N/A   Clear
4:15 PM 80.6 °F 40.1 °F 24% 30.02 in 10.0 mi NE 8.1 mph - N/A   Clear
4:35 PM 80.1 °F 38.8 °F 23% 30.02 in 10.0 mi NE 6.9 mph - N/A   Clear
4:55 PM 80.8 °F 39.4 °F 23% 30.02 in 10.0 mi NNE 8.1 mph - N/A   Clear
5:15 PM 79.9 °F 40.1 °F 24% 30.03 in 10.0 mi NNE 8.1 mph - N/A   Clear
5:35 PM 79.9 °F 40.3 °F 24% 30.02 in 10.0 mi NE 5.8 mph - N/A   Clear
5:55 PM 79.7 °F 43.3 °F 28% 30.02 in 10.0 mi NNE 4.6 mph - N/A   Clear
6:15 PM 78.8 °F 45.0 °F 30% 30.03 in 10.0 mi NNE 3.5 mph - N/A   Clear
6:35 PM 78.6 °F 45.7 °F 31% 30.03 in 10.0 mi NE 3.5 mph - N/A   Clear
6:55 PM 78.1 °F 46.9 °F 33% 30.03 in 10.0 mi ENE 4.6 mph - N/A   Clear
7:15 PM 76.3 °F 48.0 °F 37% 30.04 in 10.0 mi ENE 5.8 mph - N/A   Clear
7:35 PM 75.4 °F 52.0 °F 44% 30.04 in 10.0 mi East 3.5 mph - N/A   Clear
7:55 PM 74.5 °F 54.1 °F 49% 30.04 in 10.0 mi East 3.5 mph - N/A   Clear
8:15 PM 72.3 °F 52.7 °F 50% 30.05 in 10.0 mi East 4.6 mph - N/A   Clear
8:35 PM 69.6 °F 53.4 °F 56% 30.05 in 10.0 mi East 3.5 mph - N/A   Clear
8:55 PM 69.1 °F 51.8 °F 54% 30.05 in 10.0 mi Calm Calm - N/A   Clear
9:15 PM 66.0 °F 54.5 °F 66% 30.05 in 10.0 mi Calm Calm - N/A   Clear
9:35 PM 64.4 °F 53.2 °F 67% 30.06 in 10.0 mi Calm Calm - N/A   Clear
9:55 PM 63.1 °F 54.1 °F 72% 30.07 in 10.0 mi Calm Calm - N/A   Clear
10:15 PM 60.8 °F 54.5 °F 80% 30.08 in 10.0 mi Calm Calm - N/A   Clear
10:35 PM 60.4 °F 56.3 °F 86% 30.08 in 10.0 mi NNW 3.5 mph - N/A   Clear
10:55 PM 58.6 °F 54.9 °F 87% 30.08 in 10.0 mi NNW 4.6 mph - N/A   Clear
11:15 PM 58.6 °F 55.4 °F 89% 30.08 in 10.0 mi Calm Calm - N/A   Clear
11:35 PM 58.1 °F 54.9 °F 89% 30.09 in 10.0 mi Calm Calm - N/A   Clear
11:55 PM 57.6 °F 54.5 °F 90% 30.09 in 10.0 mi NNW 4.6 mph - N/A   Clear